| time (UTC) | temp F | wind direction | speed knots | gust knots | rain 1hr in | rain 24hr in | rain mn in | humidity % | barometer mb |
| 20260505152108 | 35 | 0 | 0.9 | 3.5 | 0.05 | 0.39 | 0.00 | 93 | 1010.2 |
| 20260505151213 | 35 | 338 | 0.9 | 2.6 | 0.05 | 0.38 | 0.00 | 93 | 1010.3 |
| 20260505150213 | 35 | 338 | 0.9 | 2.6 | 0.06 | 0.38 | 0.00 | 94 | 1010.1 |
| 20260505140118 | 34 | 0 | 1.7 | 3.5 | 0.05 | 0.32 | 0.00 | 93 | 1009.9 |
| 20260505123333 | 34 | 338 | 0.9 | 2.6 | 0.04 | 0.26 | 0.00 | 92 | 1008.9 |
| 20260505122358 | 34 | 0 | 1.7 | 4.3 | 0.05 | 0.26 | 0.00 | 93 | 1008.8 |
| 20260505120601 | 34 | 338 | 1.7 | 3.5 | 0.05 | 0.25 | 0.00 | 92 | 1008.7 |
| 20260505115709 | 34 | 0 | 3.5 | 6.1 | 0.05 | 0.24 | 0.00 | 92 | 1008.7 |
| 20260505114029 | 34 | 22 | 2.6 | 5.2 | 0.05 | 0.23 | 0.00 | 92 | 1008.4 |
| 20260505113123 | 34 | 22 | 2.6 | 6.1 | 0.04 | 0.22 | 0.00 | 92 | 1008.2 |
| 20260505112508 | 35 | 0 | 2.6 | 5.2 | 0.04 | 0.21 | 0.00 | 91 | 1008.1 |
| 20260505112227 | 35 | 0 | 2.6 | 5.2 | 0.04 | 0.21 | 0.00 | 91 | 1008.1 |
| 20260505111418 | 35 | 0 | 2.6 | 8.7 | 0.04 | 0.20 | 0.00 | 91 | 1007.9 |
| 20260505101748 | 38 | 0 | 5.2 | 12.2 | 0.03 | 0.16 | 0.00 | 91 | 1007.5 |
| 20260505100801 | 39 | 0 | 6.1 | 11.3 | 0.02 | 0.15 | 0.00 | 90 | 1007.1 |
| 20260505095941 | 41 | 0 | 5.2 | 13.0 | 0.01 | 0.14 | 0.00 | 92 | 1006.9 |
| 20260505095058 | 41 | 0 | 5.2 | 15.6 | 0.01 | 0.14 | 0.00 | 92 | 1006.7 |
| 20260505094118 | 41 | 0 | 5.2 | 12.2 | 0.01 | 0.14 | 0.00 | 91 | 1006.6 |
| 20260505092428 | 42 | 0 | 3.5 | 7.8 | 0.02 | 0.13 | 0.00 | 92 | 1006.3 |
| 20260505090609 | 42 | 0 | 6.1 | 10.4 | 0.03 | 0.13 | 0.00 | 91 | 1006.1 |
| 20260505085648 | 42 | 0 | 4.3 | 11.3 | 0.04 | 0.13 | 0.00 | 91 | 1006.2 |
| 20260505083758 | 43 | 0 | 6.1 | 13.9 | 0.03 | 0.12 | 0.00 | 90 | 1006.0 |
| 20260505082914 | 43 | 0 | 6.1 | 13.0 | 0.03 | 0.12 | 0.00 | 90 | 1005.8 |
| 20260505081836 | 43 | 0 | 5.2 | 12.2 | 0.01 | 0.10 | 0.00 | 89 | 1005.7 |
| 20260505081133 | 43 | 0 | 5.2 | 12.2 | 0.01 | 0.10 | 0.00 | 89 | 1005.7 |
| 20260505080143 | 43 | 0 | 7.0 | 13.9 | 0.00 | 0.09 | 0.00 | 88 | 1005.5 |
| 20260505075158 | 43 | 0 | 7.0 | 12.2 | 0.00 | 0.09 | 0.00 | 88 | 1005.7 |
| 20260505074333 | 44 | 0 | 6.1 | 13.9 | 0.00 | 0.09 | 0.00 | 87 | 1005.5 |
| 20260505073523 | 44 | 0 | 4.3 | 12.2 | 0.00 | 0.09 | 0.00 | 87 | 1005.7 |
| 20260505072628 | 44 | 0 | 7.0 | 14.8 | 0.00 | 0.09 | 0.00 | 86 | 1005.5 |
| 20260505071723 | 45 | 0 | 7.0 | 13.9 | 0.00 | 0.09 | 0.00 | 86 | 1005.6 |
| 20260505070841 | 45 | 0 | 6.1 | 13.9 | 0.00 | 0.09 | 0.00 | 86 | 1005.5 |
| 20260505070008 | 45 | 0 | 6.1 | 13.9 | 0.00 | 0.09 | 0.00 | 85 | 1005.5 |
| 20260505065043 | 46 | 0 | 6.1 | 12.2 | 0.00 | 0.09 | 0.00 | 86 | 1005.4 |
| 20260505064511 | 47 | 0 | 7.0 | 13.9 | 0.00 | 0.09 | 0.00 | 89 | 1005.2 |
| 20260505064233 | 47 | 0 | 7.0 | 13.9 | 0.00 | 0.09 | 0.00 | 89 | 1005.2 |
| 20260505063238 | 47 | 0 | 0.0 | 0.9 | 0.00 | 0.09 | 0.00 | 91 | 1004.8 |
| 20260505062510 | 47 | 0 | 0.0 | 0.0 | 0.00 | 0.09 | 0.00 | 91 | 1004.6 |
| 20260505062358 | 47 | 0 | 0.0 | 0.0 | 0.00 | 0.09 | 0.00 | 91 | 1004.6 |
| 20260505060438 | 46 | 0 | 0.0 | 0.9 | 0.00 | 0.09 | 0.00 | 90 | 1004.6 |
| 20260505055618 | 46 | 202 | 0.9 | 1.7 | 0.00 | 0.09 | 0.00 | 90 | 1004.6 |
| 20260505053911 | 46 | 0 | 0.0 | 0.9 | 0.00 | 0.09 | 0.00 | 90 | 1004.3 |
| 20260505052932 | 46 | 0 | 0.0 | 0.9 | 0.00 | 0.09 | 0.00 | 90 | 1004.2 |
| 20260505052033 | 47 | 0 | 0.0 | 0.9 | 0.00 | 0.09 | 0.00 | 90 | 1004.1 |
| 20260505051103 | 47 | 0 | 0.0 | 1.7 | 0.00 | 0.09 | 0.00 | 89 | 1004.0 |
| 20260505050143 | 47 | 180 | 0.9 | 1.7 | 0.00 | 0.09 | 0.00 | 89 | 1004.0 |
| 20260505041733 | 48 | 180 | 1.7 | 3.5 | 0.01 | 0.09 | 0.00 | 88 | 1004.1 |
| 20260505035853 | 49 | 202 | 1.7 | 5.2 | 0.03 | 0.09 | 0.00 | 87 | 1003.8 |
| 20260505035048 | 49 | 180 | 2.6 | 4.3 | 0.03 | 0.09 | 0.00 | 87 | 1003.8 |
| 20260505034244 | 49 | 225 | 1.7 | 3.5 | 0.04 | 0.09 | 0.00 | 87 | 1003.7 |
| 20260505033308 | 50 | 225 | 1.7 | 2.6 | 0.05 | 0.09 | 0.00 | 86 | 1003.8 |
| 20260505032314 | 50 | 180 | 1.7 | 4.3 | 0.05 | 0.09 | 0.00 | 86 | 1003.6 |
| 20260505031453 | 50 | 180 | 3.5 | 9.6 | 0.03 | 0.07 | 0.00 | 84 | 1003.3 |
| 20260505030453 | 51 | 202 | 2.6 | 5.2 | 0.02 | 0.06 | 0.00 | 83 | 1003.1 |
| 20260505025601 | 51 | 225 | 2.6 | 5.2 | 0.02 | 0.06 | 0.00 | 82 | 1003.1 |
| 20260505024648 | 51 | 248 | 4.3 | 8.7 | 0.01 | 0.05 | 0.00 | 80 | 1002.9 |
| 20260505022813 | 51 | 270 | 2.6 | 5.2 | 0.00 | 0.04 | 0.00 | 75 | 1002.8 |
| 20260505021933 | 51 | 270 | 3.5 | 5.2 | 0.00 | 0.04 | 0.00 | 74 | 1002.7 |
| 20260505021044 | 51 | 270 | 2.6 | 5.2 | 0.00 | 0.04 | 0.00 | 74 | 1002.6 |
| 20260505020108 | 51 | 292 | 2.6 | 6.1 | 0.00 | 0.04 | 0.00 | 74 | 1002.6 |
| 20260505015253 | 51 | 270 | 2.6 | 4.3 | 0.00 | 0.04 | 0.00 | 74 | 1002.6 |
| 20260505014321 | 52 | 270 | 2.6 | 7.0 | 0.00 | 0.04 | 0.00 | 74 | 1002.4 |
| 20260505012518 | 53 | 315 | 4.3 | 10.4 | 0.00 | 0.04 | 0.00 | 72 | 1002.3 |
| 20260505011601 | 53 | 315 | 3.5 | 11.3 | 0.00 | 0.04 | 0.00 | 71 | 1002.2 |
| 20260505004808 | 56 | 315 | 5.2 | 13.0 | 0.00 | 0.04 | 0.00 | 63 | 1002.1 |
| 20260505004033 | 56 | 0 | 5.2 | 11.3 | 0.00 | 0.04 | 0.00 | 63 | 1002.0 |
| 20260505003948 | 56 | 0 | 5.2 | 11.3 | 0.00 | 0.04 | 0.00 | 63 | 1002.0 |
| 20260505002948 | 56 | 338 | 1.7 | 4.3 | 0.00 | 0.04 | 0.00 | 65 | 1001.8 |
| 20260505001018 | 57 | 270 | 0.9 | 3.5 | 0.00 | 0.04 | 0.00 | 75 | 1001.5 |
| 20260504234238 | 56 | 202 | 0.9 | 1.7 | 0.03 | 0.04 | 0.00 | 76 | 1001.2 |
| 20260504233322 | 56 | 22 | 1.7 | 4.3 | 0.03 | 0.04 | 0.00 | 76 | 1000.9 |
| 20260504232344 | 56 | 0 | 1.7 | 2.6 | 0.03 | 0.04 | 0.00 | 75 | 1001.2 |
| 20260504231438 | 56 | 0 | 1.7 | 3.5 | 0.03 | 0.04 | 0.00 | 74 | 1001.5 |
| 20260504230608 | 58 | 270 | 2.6 | 5.2 | 0.03 | 0.04 | 0.00 | 68 | 1001.4 |
| 20260504230521 | 58 | 270 | 2.6 | 5.2 | 0.03 | 0.04 | 0.00 | 68 | 1001.4 |
| 20260504224748 | 61 | 292 | 5.2 | 12.2 | 0.00 | 0.01 | 0.00 | 54 | 1001.1 |
| 20260504223928 | 61 | 315 | 1.7 | 4.3 | 0.00 | 0.01 | 0.00 | 45 | 1000.8 |
| 20260504223003 | 62 | 0 | 3.5 | 6.1 | 0.00 | 0.01 | 0.00 | 43 | 1000.4 |
| 20260504222044 | 62 | 22 | 3.5 | 6.1 | 0.00 | 0.01 | 0.00 | 43 | 1000.3 |
| 20260504221112 | 62 | 0 | 3.5 | 8.7 | 0.00 | 0.01 | 0.00 | 44 | 1000.0 |
| 20260504220513 | 62 | 45 | 6.1 | 13.9 | 0.00 | 0.01 | 0.00 | 43 | 999.4 |
| 20260504220245 | 62 | 45 | 6.1 | 13.9 | 0.00 | 0.01 | 0.00 | 43 | 999.4 |
| 20260504215401 | 62 | 68 | 6.1 | 13.9 | 0.00 | 0.01 | 0.00 | 46 | 999.4 |
| 20260504214458 | 62 | 45 | 5.2 | 12.2 | 0.01 | 0.01 | 0.00 | 47 | 999.9 |
| 20260504213638 | 61 | 68 | 5.2 | 10.4 | 0.01 | 0.01 | 0.00 | 48 | 1000.1 |
| 20260504212839 | 59 | 68 | 2.6 | 6.1 | 0.01 | 0.01 | 0.00 | 50 | 1000.6 |
| 20260504212009 | 59 | 68 | 2.6 | 6.1 | 0.01 | 0.01 | 0.00 | 56 | 1001.1 |
| 20260504211802 | 59 | 0 | 6.1 | 14.8 | 0.01 | 0.01 | 0.00 | 50 | 1001.1 |
| 20260504210221 | 59 | 0 | 6.1 | 14.8 | 0.01 | 0.01 | 0.00 | 50 | 1001.1 |
| 20260504205318 | 61 | 0 | 5.2 | 13.0 | 0.01 | 0.01 | 0.00 | 50 | 1000.7 |
| 20260504204441 | 64 | 0 | 7.0 | 14.8 | 0.00 | 0.00 | 0.00 | 38 | 1000.3 |
| 20260504202653 | 65 | 0 | 9.6 | 19.1 | 0.00 | 0.00 | 0.00 | 34 | 999.4 |
| 20260504201731 | 67 | 0 | 11.3 | 22.6 | 0.00 | 0.00 | 0.00 | 31 | 999.0 |
| 20260504200748 | 71 | 0 | 7.0 | 14.8 | 0.00 | 0.00 | 0.00 | 26 | 998.6 |
| 20260504195838 | 72 | 0 | 5.2 | 12.2 | 0.00 | 0.00 | 0.00 | 26 | 998.6 |
| 20260504194858 | 74 | 315 | 3.5 | 8.7 | 0.00 | 0.00 | 0.00 | 26 | 998.6 |
| 20260504193948 | 75 | 292 | 3.5 | 10.4 | 0.00 | 0.00 | 0.00 | 28 | 998.8 |
| 20260504193254 | 77 | 315 | 5.2 | 12.2 | 0.00 | 0.00 | 0.00 | 25 | 998.7 |
| 20260504193148 | 77 | 315 | 5.2 | 12.2 | 0.00 | 0.00 | 0.00 | 25 | 998.7 |
| 20260504192313 | 77 | 315 | 7.0 | 13.9 | 0.00 | 0.00 | 0.00 | 26 | 998.7 |
| 20260504191424 | 76 | 270 | 7.0 | 13.9 | 0.00 | 0.00 | 0.00 | 24 | 998.7 |
| 20260504190613 | 76 | 270 | 8.7 | 15.6 | 0.00 | 0.00 | 0.00 | 25 | 998.8 |
| 20260504185808 | 76 | 270 | 10.4 | 15.6 | 0.00 | 0.00 | 0.00 | 24 | 999.0 |
| 20260504184828 | 76 | 270 | 7.8 | 13.0 | 0.00 | 0.00 | 0.00 | 26 | 998.8 |
| 20260504183918 | 76 | 270 | 9.6 | 14.8 | 0.00 | 0.00 | 0.00 | 26 | 999.1 |
| 20260504183049 | 75 | 270 | 10.4 | 17.4 | 0.00 | 0.00 | 0.00 | 27 | 999.2 |
| 20260504181158 | 71 | 248 | 9.6 | 15.6 | 0.00 | 0.00 | 0.00 | 28 | 999.6 |
| 20260504180401 | 70 | 270 | 7.8 | 13.0 | 0.00 | 0.00 | 0.00 | 30 | 999.6 |
| 20260504175512 | 68 | 248 | 10.4 | 16.5 | 0.00 | 0.00 | 0.00 | 31 | 999.8 |
| 20260504175403 | 68 | 248 | 10.4 | 16.5 | 0.00 | 0.00 | 0.00 | 31 | 999.8 |
| 20260504174744 | 68 | 248 | 8.7 | 13.9 | 0.00 | 0.00 | 0.00 | 32 | 999.9 |
| 20260504174548 | 68 | 248 | 8.7 | 13.9 | 0.00 | 0.00 | 0.00 | 32 | 999.9 |
| 20260504173653 | 67 | 248 | 2.6 | 5.2 | 0.00 | 0.00 | 0.00 | 36 | 1000.1 |
| 20260504172721 | 66 | 158 | 2.6 | 6.1 | 0.00 | 0.00 | 0.00 | 35 | 1000.0 |
| 20260504171743 | 65 | 158 | 1.7 | 4.3 | 0.00 | 0.00 | 0.00 | 40 | 1000.3 |
| 20260504170921 | 65 | 158 | 2.6 | 5.2 | 0.00 | 0.00 | 0.00 | 36 | 1000.3 |